STARLINK-5140, 56147

Orbit data source: Space-Track

STARLINK-5140, 56147 is a payload satellite owned by SpaceX/Seattle (US) in LEO that was launched on Wed, 29 Mar 2023 UTC via an FALCON 9 launch vehicle from the Air Force Eastern Test Range (AFETR). Payload-class satellites include a variety of spacecraft equipped with specific instruments for various scientific and technological missions. These include communications satellites like Starlink; space stations such as the ISS; scientific satellites like the Hubble; Earth observation satellites from companies like Planet Labs, Umbra, and HawkEye 360; GPS; miniature CubeSats for education and research; and military/defense satellites.

Not visible in the next 10 days
Identifier
56147, 2023-046BH
Orbit
LEO
Country
Flag of USUS
Related business
Manufacturer
SpaceX/Seattle
Mission
Partially operational Commercial Communications
Bus & Motor
STARLINK, Unknown motor
Mass
305 kg wet, ~290 kg dry
Launch date (UTC)
2023-03-29 (3 years ago)
Launch vehicle
FALCON 9
Launch site
Air Force Eastern Test Range (AFETR)
Object type
Payload
Rocket body
Debris
Shape & HBR
Box + 1 Pan, 10.1 m
Radar Cross Section
11.087 m², Large (>1 m²)

Expand to show TLE details & history
Last TLE update: 23 hours ago

TLE from 23 hours ago
0 STARLINK-5140
1 56147U 23046BH  26172.49481190  .01413817  11734-2  21458-2 0  9997
2 56147  42.9994 232.1150 0001572 289.7452  70.3258 16.03906045178621
Epoch: 2026-06-21T11:52Z
TLE epoch observation values (Epoch: 2026-06-21T11:52:31.748Z)
Latitude
-0.00001°
Longitude
144.28843°
Altitude
263.03 km
Speed
7.751 km/s
True Right ascension
15h 28m 27s
True Declination
0° 00' 00"
Sunlit
Object was in full shadow at epoch
Visualization orbit readout
Latitude
Unknown
Longitude
Unknown
Altitude
Unknown
Speed
Unknown
Apparent Right ascension
Unknown
Apparent Declination
Unknown
Sunlit
N/A
Visualization observer readout
Local Sidereal Time
21:24:44
Azimuth
Unknown
Elevation
Unknown
Doppler factor
Unknown
Orbital elements
Apogee altitude
266.667 km
Perigee altitude
264.578 km
Semi-major axis
6,643.76 km
Eccentricity
0.00016
Inclination
42.9994°
RAAN
232.115°
Arg. of periapsis
289.7452°
True anomaly
70.34276°
Mean anomaly
70.3258°
Eccentric anomaly
70.33428°
Mean motion
4.00795 °/min
Orbital period
89.82 mins
BSTAR
0.0021458
Loading maneuver chart data...
Computing Atmospheric mass density...
Loading historical data...
Loading historical data...
Loading historical data...
Loading historical data...
Loading historical data...
Loading historical data...
Loading historical data...

Documentation

Showing up to 5 results
|